TimeCDT,TemperatureF,Dew PointF,Humidity,Sea Level PressureIn,VisibilityMPH,Wind Direction,Wind SpeedMPH,Gust SpeedMPH,PrecipitationIn,Events,Conditions,WindDirDegrees,DateUTC
12:58 AM,59.4,59.0,99,30.01,10.0,Calm,Calm,-,N/A,,Clear,0,2013-07-05 05:58:00
1:58 AM,57.6,57.4,99,30.01,10.0,South,6.9,-,N/A,,Unknown,170,2013-07-05 06:58:00
2:58 AM,63.0,59.4,88,30.00,10.0,Calm,Calm,-,N/A,,Clear,0,2013-07-05 07:58:00
3:33 AM,57.2,57.2,100,30.00,9.0,ENE,1.2,-,N/A,,Clear,60,2013-07-05 08:33:00
3:48 AM,57.2,57.2,100,30.00,10.0,NNE,1.2,-,N/A,,Clear,20,2013-07-05 08:48:00
3:58 AM,57.7,57.7,100,30.01,10.0,ENE,1.2,-,N/A,,Clear,60,2013-07-05 08:58:00
4:03 AM,57.2,57.2,100,30.01,9.0,East,3.5,-,N/A,,Clear,90,2013-07-05 09:03:00
4:33 AM,55.4,55.4,100,30.01,5.0,East,3.5,-,N/A,,Clear,100,2013-07-05 09:33:00
4:38 AM,55.4,55.4,100,30.01,5.0,East,2.3,-,N/A,,Clear,100,2013-07-05 09:38:00
4:43 AM,55.4,55.4,100,30.01,2.5,East,3.5,-,N/A,,Clear,80,2013-07-05 09:43:00
4:48 AM,55.4,55.4,100,30.01,1.0,East,2.3,-,N/A,,Clear,90,2013-07-05 09:48:00
4:53 AM,55.4,55.4,100,30.01,0.8,East,4.6,-,N/A,,Clear,90,2013-07-05 09:53:00
4:58 AM,55.4,55.4,100,30.01,0.8,East,3.5,-,N/A,,Clear,80,2013-07-05 09:58:00
5:03 AM,55.4,55.4,100,30.01,0.5,East,4.6,-,N/A,Fog,Fog,90,2013-07-05 10:03:00
5:08 AM,55.4,55.4,100,30.01,0.2,East,3.5,-,N/A,Fog,Fog,90,2013-07-05 10:08:00
5:13 AM,55.4,55.4,100,30.01,0.5,ESE,2.3,-,N/A,Fog,Fog,110,2013-07-05 10:13:00
5:18 AM,55.4,55.4,100,30.02,1.2,NNE,1.2,-,N/A,,Clear,30,2013-07-05 10:18:00
5:23 AM,57.2,57.2,100,30.02,3.0,Calm,Calm,-,N/A,,Clear,0,2013-07-05 10:23:00
5:58 AM,55.4,55.4,100,30.02,2.5,Calm,Calm,-,N/A,,Clear,0,2013-07-05 10:58:00
6:03 AM,55.4,55.4,100,30.02,4.0,ENE,2.3,-,N/A,,Clear,70,2013-07-05 11:03:00
6:58 AM,62.6,60.8,94,30.02,10.0,Calm,Calm,-,N/A,,Clear,0,2013-07-05 11:58:00
7:58 AM,69.8,60.8,73,30.03,10.0,Variable,3.5,-,N/A,,Clear,0,2013-07-05 12:58:00
8:58 AM,73.4,64.4,73,30.04,10.0,SSE,6.9,-,N/A,,Clear,150,2013-07-05 13:58:00
9:58 AM,77.0,64.4,65,30.03,10.0,Variable,5.8,-,N/A,,Clear,0,2013-07-05 14:58:00
10:58 AM,80.6,62.6,54,30.02,10.0,South,8.1,-,N/A,,Clear,190,2013-07-05 15:58:00
11:58 AM,80.6,62.6,54,30.01,10.0,SW,10.4,-,N/A,,Partly Cloudy,230,2013-07-05 16:58:00
12:58 PM,82.4,60.8,48,30.00,10.0,South,10.4,17.3,N/A,,Partly Cloudy,180,2013-07-05 17:58:00
1:58 PM,84.2,59.0,42,29.99,10.0,SSE,15.0,-,N/A,,Partly Cloudy,160,2013-07-05 18:58:00
2:58 PM,84.2,60.8,45,29.99,10.0,South,9.2,-,N/A,,Scattered Clouds,190,2013-07-05 19:58:00
3:58 PM,82.8,60.1,46,29.98,10.0,South,11.5,20.7,N/A,,Partly Cloudy,190,2013-07-05 20:58:00
4:58 PM,84.2,60.8,45,29.97,10.0,South,10.4,17.3,N/A,,Clear,190,2013-07-05 21:58:00
5:58 PM,83.1,60.6,46,29.96,10.0,South,12.7,18.4,N/A,,Clear,180,2013-07-05 22:58:00
6:58 PM,82.0,61.7,50,29.96,10.0,South,9.2,-,N/A,,Clear,180,2013-07-05 23:58:00
7:58 PM,79.0,61.5,55,29.97,10.0,South,3.5,-,N/A,,Clear,190,2013-07-06 00:58:00
8:58 PM,74.5,61.9,65,29.97,10.0,Calm,Calm,-,N/A,,Clear,0,2013-07-06 01:58:00
9:58 PM,68.0,61.7,80,29.97,10.0,ESE,2.3,-,N/A,,Clear,120,2013-07-06 02:58:00
10:58 PM,63.3,61.7,94,29.98,10.0,ESE,2.3,-,N/A,,Clear,110,2013-07-06 03:58:00
11:58 PM,67.6,61.3,80,29.99,10.0,Variable,1.2,-,N/A,,Clear,0,2013-07-06 04:58:00